• In Netherlands
  • List of Countries
  • For 7 days
  • Water Temperature
  • Satellite Maps
  • Weather Map
  • Weather Widgets
  • user-avatar
    Login

    Hourly Weather Sveti Vlas

    Today, 28 June, Wednesday

    Time Temperature Precipitation Wind Pressure Humidity
    00:00 +21°C° 0 mm 1 mps 752 mmHg 88%
    01:00 +20°C° 0 mm 1 mps 752 mmHg 89%
    02:00 +18°C° 0 mm 0 mps 752 mmHg 90%
    03:00 +20°C° 0 mm 1 mps 752 mmHg 90%
    04:00 +20°C° 0 mm 1 mps 752 mmHg 91%
    05:00 +20°C° 0 mm 1 mps 752 mmHg 91%
    06:00 +22°C° 0 mm 1 mps 752 mmHg 83%
    07:00 +25°C° 0 mm 1 mps 752 mmHg 75%
    08:00 +27°C° 0 mm 1 mps 752 mmHg 67%
    09:00 +28°C° 0 mm 1 mps 752 mmHg 62%
    10:00 +30°C° 0 mm 2 mps 752 mmHg 57%
    11:00 +31°C° 0 mm 2 mps 752 mmHg 52%
    12:00 +31°C° 0 mm 2 mps 752 mmHg 50%
    13:00 +33°C° 0 mm 3 mps 752 mmHg 49%
    14:00 +33°C° 0 mm 3 mps 751 mmHg 52%
    15:00 +32°C° 0 mm 4 mps 751 mmHg 55%
    16:00 +32°C° 0 mm 4 mps 751 mmHg 57%
    17:00 +30°C° 0 mm 4 mps 751 mmHg 60%
    18:00 +28°C° 0 mm 4 mps 751 mmHg 69%
    19:00 +26°C° 0 mm 4 mps 751 mmHg 77%
    20:00 +24°C° 0 mm 3 mps 751 mmHg 86%
    21:00 +24°C° 0 mm 3 mps 751 mmHg 88%
    22:00 +22°C° 0 mm 3 mps 751 mmHg 90%
    23:00 +21°C° 0 mm 3 mps 751 mmHg 92%

    Tomorrow, 29 June, Thursday

    Time Temperature Precipitation Wind Pressure Humidity
    00:00 +21°C° 0 mm 2 mps 751 mmHg 92%
    01:00 +21°C° 0 mm 2 mps 751 mmHg 92%
    02:00 +21°C° 0 mm 2 mps 751 mmHg 91%
    03:00 +21°C° 0 mm 2 mps 751 mmHg 91%
    04:00 +20°C° 0 mm 2 mps 751 mmHg 90%
    05:00 +20°C° 0 mm 2 mps 751 mmHg 90%
    06:00 +24°C° 0 mm 2 mps 751 mmHg 80%
    07:00 +26°C° 0 mm 2 mps 751 mmHg 70%
    08:00 +29°C° 0 mm 2 mps 751 mmHg 61%
    09:00 +31°C° 0 mm 3 mps 752 mmHg 55%
    10:00 +33°C° 0 mm 3 mps 752 mmHg 49%
    11:00 +35°C° 0 mm 4 mps 752 mmHg 43%
    12:00 +36°C° 0 mm 4 mps 751 mmHg 41%
    13:00 +37°C° 0 mm 5 mps 751 mmHg 38%
    14:00 +39°C° 0 mm 5 mps 751 mmHg 36%
    15:00 +37°C° 0 mm 5 mps 750 mmHg 38%
    16:00 +37°C° 0 mm 5 mps 750 mmHg 40%
    17:00 +36°C° 0 mm 5 mps 750 mmHg 42%
    18:00 +34°C° 0 mm 5 mps 750 mmHg 49%
    19:00 +32°C° 0 mm 5 mps 750 mmHg 56%
    20:00 +28°C° 0 mm 5 mps 750 mmHg 63%
    21:00 +28°C° 0 mm 5 mps 750 mmHg 62%
    22:00 +27°C° 0 mm 5 mps 750 mmHg 62%
    23:00 +27°C° 0 mm 5 mps 750 mmHg 61%

    Day after tomorrow, 30 June, Friday

    Time Temperature Precipitation Wind Pressure Humidity
    00:00 +27°C° 0 mm 5 mps 750 mmHg 60%
    01:00 +26°C° 0 mm 4 mps 750 mmHg 58%
    02:00 +26°C° 0 mm 4 mps 751 mmHg 57%
    03:00 +26°C° 0 mm 4 mps 751 mmHg 57%
    04:00 +26°C° 0 mm 3 mps 751 mmHg 56%
    05:00 +25°C° 0 mm 3 mps 751 mmHg 56%
    06:00 +28°C° 0 mm 3 mps 751 mmHg 50%
    07:00 +30°C° 0 mm 2 mps 752 mmHg 44%
    08:00 +34°C° 0 mm 2 mps 752 mmHg 38%
    09:00 +35°C° 0 mm 2 mps 752 mmHg 34%
    10:00 +37°C° 0 mm 2 mps 752 mmHg 30%
    11:00 +39°C° 0 mm 2 mps 753 mmHg 27%
    12:00 +39°C° 0 mm 2 mps 752 mmHg 25%
    13:00 +40°C° 0 mm 2 mps 752 mmHg 24%
    14:00 +41°C° 0 mm 2 mps 752 mmHg 23%
    15:00 +40°C° 0 mm 3 mps 752 mmHg 23%
    16:00 +40°C° 0 mm 3 mps 752 mmHg 24%
    17:00 +40°C° 0 mm 3 mps 751 mmHg 24%
    18:00 +36°C° 0 mm 3 mps 752 mmHg 31%
    19:00 +33°C° 0 mm 3 mps 752 mmHg 37%
    20:00 +29°C° 0 mm 3 mps 752 mmHg 43%
    21:00 +28°C° 0 mm 3 mps 752 mmHg 46%
    22:00 +26°C° 0 mm 2 mps 752 mmHg 49%
    23:00 +25°C° 0 mm 2 mps 753 mmHg 52%

    1 July, Saturday

    Time Temperature Precipitation Wind Pressure Humidity
    00:00 +25°C° 0 mm 2 mps 753 mmHg 54%
    01:00 +24°C° 0 mm 2 mps 753 mmHg 55%
    02:00 +24°C° 0 mm 1 mps 753 mmHg 57%
    03:00 +24°C° 0 mm 1 mps 753 mmHg 58%
    04:00 +24°C° 0 mm 1 mps 752 mmHg 59%
    05:00 +24°C° 0 mm 1 mps 752 mmHg 60%
    06:00 +27°C° 0 mm 1 mps 752 mmHg 52%
    07:00 +30°C° 0 mm 2 mps 752 mmHg 43%
    08:00 +34°C° 0 mm 2 mps 752 mmHg 34%
    09:00 +36°C° 0 mm 3 mps 752 mmHg 32%
    10:00 +37°C° 0 mm 3 mps 752 mmHg 29%
    11:00 +40°C° 0 mm 4 mps 752 mmHg 26%
    12:00 +40°C° 0 mm 4 mps 752 mmHg 26%
    13:00 +41°C° 0 mm 4 mps 751 mmHg 26%
    14:00 +41°C° 0 mm 5 mps 751 mmHg 26%
    15:00 +40°C° 0 mm 5 mps 750 mmHg 30%
    16:00 +37°C° 0 mm 5 mps 750 mmHg 34%
    17:00 +36°C° 0 mm 5 mps 750 mmHg 38%
    18:00 +33°C° 0 mm 5 mps 750 mmHg 48%
    19:00 +29°C° 0 mm 4 mps 749 mmHg 58%
    20:00 +27°C° 0 mm 4 mps 749 mmHg 68%
    21:00 +26°C° 0 mm 4 mps 749 mmHg 70%
    22:00 +25°C° 0 mm 3 mps 749 mmHg 73%
    23:00 +24°C° 0 mm 3 mps 749 mmHg 75%

    2 July, Sunday

    Time Temperature Precipitation Wind Pressure Humidity
    00:00 +22°C° 0 mm 3 mps 749 mmHg 75%
    01:00 +23°C° 0 mm 2 mps 748 mmHg 76%
    02:00 +21°C° 0 mm 2 mps 748 mmHg 76%
    03:00 +21°C° 0 mm 2 mps 748 mmHg 75%
    04:00 +22°C° 0 mm 1 mps 748 mmHg 74%
    05:00 +22°C° 0 mm 1 mps 748 mmHg 74%
    06:00 +25°C° 0 mm 2 mps 748 mmHg 64%
    07:00 +28°C° 0 mm 2 mps 748 mmHg 55%
    08:00 +31°C° 0 mm 2 mps 748 mmHg 45%
    09:00 +33°C° 0 mm 3 mps 748 mmHg 43%
    10:00 +34°C° 0 mm 3 mps 748 mmHg 42%
    11:00 +35°C° 0 mm 4 mps 748 mmHg 40%
    12:00 +36°C° 0 mm 4 mps 748 mmHg 39%
    13:00 +37°C° 0 mm 4 mps 748 mmHg 37%
    14:00 +37°C° 0 mm 4 mps 747 mmHg 36%
    15:00 +37°C° 0 mm 4 mps 747 mmHg 38%
    16:00 +36°C° 0 mm 4 mps 747 mmHg 39%
    17:00 +36°C° 0 mm 4 mps 747 mmHg 41%
    18:00 +33°C° 0 mm 4 mps 747 mmHg 51%
    19:00 +29°C° 0 mm 3 mps 747 mmHg 62%
    20:00 +26°C° 0 mm 3 mps 747 mmHg 72%
    21:00 +25°C° 0 mm 3 mps 747 mmHg 76%
    22:00 +25°C° 0 mm 3 mps 747 mmHg 81%
    23:00 +24°C° 0 mm 2 mps 747 mmHg 85%

    3 July, Monday

    Time Temperature Precipitation Wind Pressure Humidity
    00:00 +22°C° 0.1 mm 3 mps 747 mmHg 87%
    01:00 +22°C° 0.1 mm 3 mps 747 mmHg 88%
    02:00 +22°C° 0.1 mm 4 mps 747 mmHg 89%
    03:00 +22°C° 0.1 mm 4 mps 747 mmHg 90%
    04:00 +22°C° 0.1 mm 4 mps 747 mmHg 92%
    05:00 +22°C° 0.1 mm 5 mps 747 mmHg 93%
    06:00 +23°C° 0 mm 6 mps 747 mmHg 88%
    07:00 +24°C° 0 mm 7 mps 747 mmHg 82%
    08:00 +26°C° 0 mm 8 mps 747 mmHg 76%
    09:00 +27°C° 0 mm 8 mps 747 mmHg 70%
    10:00 +28°C° 0 mm 9 mps 747 mmHg 64%
    11:00 +29°C° 0 mm 9 mps 747 mmHg 59%
    12:00 +31°C° 0 mm 9 mps 747 mmHg 57%
    13:00 +31°C° 0 mm 9 mps 747 mmHg 56%
    14:00 +31°C° 0 mm 9 mps 746 mmHg 54%
    15:00 +29°C° 0 mm 10 mps 747 mmHg 54%
    16:00 +29°C° 0 mm 10 mps 747 mmHg 54%
    17:00 +28°C° 0 mm 10 mps 747 mmHg 54%
    18:00 +27°C° 0.1 mm 9 mps 747 mmHg 58%
    19:00 +26°C° 0.1 mm 8 mps 747 mmHg 62%
    20:00 +24°C° 0.1 mm 8 mps 748 mmHg 65%
    21:00 +23°C° 0.6 mm 8 mps 748 mmHg 73%
    22:00 +21°C° 0.6 mm 9 mps 749 mmHg 80%
    23:00 +19°C° 0.6 mm 10 mps 749 mmHg 87%
    Show more